www.pogodaiklimat.ru
ПОГОДА в Нассау
Время
(UTC), дата
18 5.11
21 5.11
00 6.11
06 6.11
09 6.11
12 6.11
15 6.11
18 6.11
21 6.11
00 7.11
03 7.11
06 7.11
09 7.11
12 7.11
15 7.11
18 7.11
21 7.11
00 8.11
03 8.11
12 8.11
15 8.11
18 8.11
21 8.11
00 9.11
03 9.11
06 9.11
09 9.11
12 9.11
15 9.11
18 9.11
21 9.11
00 10.11
03 10.11
06 10.11
12 10.11
15 10.11
18 10.11
21 10.11
00 11.11
03 11.11
06 11.11
09 11.11
12 11.11
15 11.11
18 11.11
00 12.11
03 12.11
06 12.11
09 12.11
12 12.11
Ветер
(напр.,м/с)
Видим. Явления Облачность Т
(С)
Тd
(С)
f
(%)
Тe
(С)
Тes
(С)
Комфортность P
(гПа)
Po
(гПа)
Тmin
(С)
Tmax
(С)
R
(мм)
R24
(мм)
S
(см)
В 4 15 км 8/5 750 м
[Cu Sc Ci sp]
+29.8 +23.2 68 +40 +44 очень
душно
1017.8 1017.0
В 5 15 км осадки на расстоянии 6/5 750 м
[Cu Sc Ci sp]
+29.2 +23.7 72 +40 +41 очень
душно
1017.2 1016.4
В 3 15 км осадки на расстоянии 5/3 600 м
[Cu Sc As op]
+27.7 +24.0 80 +38 +38 очень
душно
1018.8 1018.0 +23.1 +30.8
В 3 15 км 4/4 600 м
[Cu Sc As op]
+27.1 +24.3 85 +38 +38 очень
душно
1018.8 1018.0
В 3 15 км 4/4 600 м
[Cu Sc]
+26.8 +24.3 86 +37 +37 очень
душно
1018.3 1017.5
В 3 15 км в посл. час ливневой дождь 6/6 600 м
[Cu Sc As op]
+30.8 +23.3 64 +38 +38 очень
душно
1018.0 1017.2 +23.3 +30.8 0.0
В 6 15 км 8/5 600 м
[Cu med, cong Ci fib]
+30.0 +24.3 72 +42 +44 опасность
перегрева
1020.5 1019.7
В 6 15 км в посл. час ливневой дождь 8/5 600 м
[Cu med, cong Ac trans Ci sp]
+29.9 +24.3 72 +42 +44 опасность
перегрева
1018.9 1018.1 0.0
В 7 6000 м 9/5 600 м
[Cu Sc Ac trans Ci sp]
+29.6 +24.7 75 +42 +42 опасность
перегрева
1018.0 1017.2
В 5 15 км 4/3 600 м
[Cu hum Ci fib]
+27.4 +24.0 82 +38 +38 очень
душно
1018.9 1018.1 +23.3 +30.3
В 4 15 км 4/4 600 м
[Cu hum]
+27.5 +24.1 82 +38 +38 очень
душно
1019.7 1018.9
В 4 15 км 3/3 600 м
[Cu hum]
+26.8 +23.9 84 +37 +37 очень
душно
1018.8 1018.0
В 3 15 км 4/4 600 м
[Cu hum]
+26.8 +23.9 84 +37 +37 очень
душно
1017.7 1016.9
В 3 15 км сильн. гроза с градом 4/3 600 м
[Cu Sc As op]
+30.3 +25.8 77 +45 +45 опасность
перегрева
1018.0 1017.2 +25.8 +30.3
В 6 15 км 6/6 600 м
[Cu med, cong]
+28.8 +24.3 77 +40 +42 очень
душно
1019.1 1018.3
СВ 6 15 км осадки на расстоянии 5/5 600 м
[Cu med, cong]
+30.0 +24.6 73 +43 +45 опасность
перегрева
1017.1 1016.3
В 5 15 км 4/4 600 м
[Cu med, cong]
+30.0 +26.0 79 +45 +46 опасность
перегрева
1016.2 1015.4
В 4 15 км 4/4 600 м
[Cu Sc]
+27.6 +24.6 84 +39 +39 очень
душно
1016.8 1016.0 +25.8 +30.7
В 2 15 км 4/4 600 м
[]
+16.8 +24.5 100
штиль 0 15 км 4/1 600 м
[Cu hum Ci fib]
+24.3 +23.6 96 +33 +33 очень
душно
1015.3 1014.5 +23.4 +30.7
С 4 15 км 6/4 600 м
[Cu hum Ci fib]
+30.8 +24.4 69 +43 +46 опасность
перегрева
1015.7 1014.9
СВ 3 15 км 8/6 600 м
[St Ac lent Cs]
+29.1 +23.7 73 +40 +43 очень
душно
1013.4 1012.6
СВ 4 15 км 5/5 450 м
[Cb cap Ci fib]
+29.8 +24.2 72 +42 +42 опасность
перегрева
1012.6 1011.8
СВ 1 15 км осадки на расстоянии 6/5 450 м
[Cb cap Ci ing]
+27.1 +23.8 82 +37 +37 очень
душно
1013.5 1012.7 +23.4 +30.9
нст 1 15 км 6/5 600 м
[Cu Sc Ci fib]
+26.0 +23.4 86 +35 +35 очень
душно
1014.3 1013.5
штиль 0 15 км 5/4 600 м
[Cu med, cong Ci fib]
+24.8 +22.3 86 +32 +32 очень
душно
1012.8 1012.0
нст 1 15 км 4/4 600 м
[Cu med, cong]
+23.0 +21.7 92 +31 +31 очень
душно
1011.7 1010.9
штиль 0 15 км 8/5 600 м
[Cu Sc Ci sp]
+23.1 +22.0 94 +31 +31 очень
душно
1012.6 1011.8 +22.0 +30.9
З 5 15 км зарница 9/0 300 м
[Ac As]
+28.8 +23.3 72 +39 +41 очень
душно
1013.1 1012.3
В 5 9000 м слаб. ливневой дождь 10/5 180 м
[Cb cap Ac As]
+23.8 +22.8 94 +31 +32 очень
душно
1013.0 1012.2 9
СВ 19 11 км в посл. час ливневой дождь 9/6 300 м
[St Ac trans]
+24.6 +18.3 68 +29 +29 душно 1013.8 1013.0
В 6 11 км в посл. час ливневой дождь 9/6 300 м
[St Ac lent]
+25.2 +19.7 72 +31 +31 очень
душно
1014.8 1014.0 +30.6
СВ 6 11 км слаб. ливневой дождь 9/9 1200 м
[Cu Sc]
+23.2 +21.1 88 +31 +31 очень
душно
1016.7 1015.9
СВ 5 13 км {ливн. осадки} 9/9 540 м
[]
+24.8 +18.9 70 +30 +30 душно 1015.8 1015.0 2
В 4 15 км 6/6 600 м
[Cu Sc]
+24.7 +18.1 67 +29 +29 душно 1017.6 1016.8 +21.8 +30.6
СВ 7 15 км 3/3 1200 м
[Sc diur, vesp]
+27.8 +17.1 52 +32 +33 душно 1019.1 1018.3
СВ 7 15 км 5/5 750 м
[Cu hum]
+27.8 +17.7 54 +32 +33 душно 1017.3 1016.5
СВ 6 15 км 5/5 750 м
[Cu Sc]
+27.0 +17.1 55 +31 +31 душно 1016.7 1015.9
В 4 15 км 4/3 600 м
[Cu Sc As op Cs]
+27.9 +21.8 69 +36 +36 очень
душно
1018.1 1017.3 +21.8 +27.9
В 3 15 км 4/4 750 м
[Cu Sc]
+24.4 +18.4 69 +29 +29 душно 1018.5 1017.7
В 2 15 км 3/3 600 м
[Cu Sc As op Cs]
+22.9 +20.4 86 1017.7
В 3 15 км 4/4 600 м
[Cu Sc As op Cs]
+22.3 +18.4 79 +28 +28 душно 1016.8 1016.0
В 3 15 км 6/6 600 м
[St Ac lent]
+27.9 +21.8 69 +29 +29 жарко 1018.2 1017.4 +21.8 +27.9
В 6 15 км {ливн. осадки} 5/5 750 м
[Cu Sc]
+28.4 +18.5 55 +33 +35 очень
душно
1019.0 1018.2
В 6 15 км {ливн. осадки} 4/4 750 м
[Cu Sc]
+29.1 +18.4 52 +34 +36 очень
душно
1016.8 1016.0 0.0
В 4 15 км 4/4 750 м
[Cu Sc]
+26.0 +20.4 71 +32 +32 очень
душно
1016.8 1016.0 +21.8 +29.1
В 3 15 км 4/4 1500 м
[Sc]
+25.3 +20.5 75 +31 +31 очень
душно
1017.2 1016.4
В 3 15 км 4/0
[Ci fib]
+24.7 +21.1 80 +31 +31 очень
душно
1015.9 1015.1
В 2 15 км 5/4 600 м
[Cu Sc Ac trans Ci fib]
+23.1 +21.1 89 +31 +31 очень
душно
1014.2 1013.4
В 2 15 км сильн. гроза с градом 5/3 600 м
[Cu Sc Ac trans Ci fib]
+29.0 +21.4 64 +37 +37 очень
душно
1014.9 1014.1 +21.4 +29.0
Местоположение метеостанции Нассау (Багамские Острова): широта 25.05 долгота -77.46 высота над уровнем моря 7 м.
В архиве по умолчанию представлена погода в Нассау за последнюю неделю. Архивные данные за месяц целиком и за предыдущие месяцы, начиная с января 2011 года, Вы можете получить, выбрав интересующий диапазон дат из раскрывающегося списка и нажав кнопку "Найти!".
*Определитесь, кто Вы:
Внимание! Время в таблицах - всемирное. Для получения местного времени необходимо прибавить поправку, которая равна -4 ч.
Смотрите также архив погоды в соседних городах и на ближайших метеорологических станциях:
Партнеры нашего сайта:      
Пояснения к столбцам:
  • Ветер - указаны скорость ветра в м/с - средняя за 10 мин, порывы в срок и между сроками (в фигурных скобках) и направление, откуда дует ветер: С - северный,
  • СВ - северо-восточный, В - восточный, ЮВ - юго-восточный, Ю - южный, ЮЗ - юго-западный, З - западный, СЗ - северо-западный.
  • Видимость - горизонтальная дальность видимости в метрах или километрах. При видимости от 1 до 10 км при отсутствии осадков обычно наблюдается дымка, при ухудшении видимости до 1 км и менее - туман. В сухую погоду видимость может ухудшаться дымом, пылью или мглою.
  • Явления - указаны атмосферные явления, наблюдавшиеся в срок или в последний час перед сроком; фигурными скобками обозначены явления, наблюдавшиеся между сроками (за 1-3 часа до срока); квадратными скобками обозначены град или гололедные отложения с указанием их диаметра в мм.
  • Облачность - указаны через наклонную черту общая и нижняя облачность в баллах и высота нижней границы облаков в метрах; квадратными скобками обозначены формы облаков: Ci - перистые, Cs - перисто-слоистые, Cc - перисто-кучевые, Ac - высококучевые, As - высокослоистые, Sc - слоисто-кучевые, Ns - слоисто-дождевые, Cu - кучевые, Cb - кучево-дождевые. Подробнее классификацию облаков см. в Атласе облаков (PDF).
  • T - Температура воздуха - температура, измеренная на высоте 2 м над землей.
  • Td - Температура точки росы - температура, при понижении до которой содержащийся в воздухе водяной пар достигнет насыщения.
  • f - Относительная влажность воздуха - влажноcть воздуха, измеренная на высоте 2 м над землей.
  • Te - Эффективная температура - температура, которую ощущает одетый по сезону человек в тени. Характеристика душности погоды. При расчете учитывается влияние влажности воздуха и скорости ветра на теплоощущения человека.
  • Tes - Эффективная температура на солнце - температура, которую ощущает человек, с поправкой на солнечный нагрев. Характеристика знойности погоды. Зависит от высоты солнца над горизонтом, облачности и скорости ветра. Ночью, в пасмурную погоду, а также при ветре 12 м/с и более поправка равна нулю.
  • P - Атмосферное давление - приведенное к уровню моря атмосферное давление.
  • Po - Атмосферное давление - измеренное на уровне метеостанции атмосферное давление.
  • Tmin - Минимальная температура - минимум температуры воздуха на высоте 2 м над землей.
  • Tmax - Максимальная температура - максимум температуры воздуха на высоте 2 м над землей.
  • R - Количество осадков - Количество выпавших осадков за период времени, мм. При наведении курсора мыши на число - период времени, за который выпало указанное количество осадков.
  • R24 - Количество осадков - Количество выпавших осадков за 24 часа, мм.
  • S - Снежный покров - Высота снежного покрова, см. При наведении курсора мыши на число - состояние снежного покрова и степень покрытия местности в баллах.